Theta_e
342 340 338 338 337 336 339 342 343 344 346 347 347 347 346 344 344 345 346 347 345 345 345 344 343 344 343 343 343 341 341 343 340 340 341 339 337 330 326 326 325 324 323 323 323 322 323 324 325 325 326 326 326 326 326 327 327 328 329 331 333 334 335 337 338 340 340 340 341 341 341 341 341 341 341 341 341 341 342 342 342 342 343 343 343
336 334 332 333 333 335 339 341 343 346 347 347 347 346 346 346 347 347 348 349 347 345 346 345 344 344 345 344 345 344 343 344 343 343 342 339 337 329 324 324 323 322 322 322 322 323 324 325 326 327 327 327 327 327 327 328 330 333 335 337 338 340 340 341 341 341 341 340 340 340 340 340 340 341 341 342 343 344 345 345 345 346 346 346 346
333 331 331 333 335 337 341 343 344 346 346 346 346 347 348 348 348 349 350 350 348 346 346 345 345 344 345 345 345 345 345 345 345 345 344 339 333 328 324 323 322 321 322 322 323 325 326 327 327 328 328 328 328 328 330 333 336 338 340 341 341 342 341 341 341 340 339 338 338 338 339 340 342 343 345 346 347 347 348 348 348 349 348 348 348
333 332 333 335 338 341 344 344 344 345 346 346 346 347 348 346 345 347 349 349 347 346 346 344 344 344 344 345 344 345 345 345 345 345 345 338 331 331 326 321 322 322 322 324 324 326 327 328 328 328 328 328 329 333 336 338 340 340 341 341 341 340 339 338 337 336 335 336 337 339 341 343 344 345 347 348 347 346 344 345 346 347 347 347 347
335 333 336 337 339 343 344 344 344 344 344 344 344 347 349 348 346 348 349 348 346 345 345 343 343 343 343 344 344 345 345 345 346 345 346 343 338 337 331 322 321 323 324 325 326 327 328 328 328 328 329 330 334 337 339 339 338 338 338 339 339 339 338 337 335 334 334 336 338 341 343 345 345 345 346 345 344 339 334 335 336 338 341 343 343
336 335 338 339 340 343 344 344 343 342 342 343 347 350 351 351 350 350 349 347 346 345 345 343 343 343 343 344 344 345 346 346 346 345 347 347 343 341 337 329 324 323 325 326 327 328 328 328 328 329 331 334 337 338 337 337 336 337 337 338 339 338 337 336 335 336 337 339 341 343 344 345 344 344 344 344 341 333 325 324 325 326 329 330 331
337 337 339 343 344 344 345 344 341 343 343 344 349 351 351 352 352 351 349 347 346 345 345 344 344 344 344 344 344 345 346 345 346 346 345 346 345 343 339 335 329 326 327 329 329 328 328 329 329 331 334 336 336 336 335 336 336 338 338 338 337 337 337 338 339 340 340 342 343 344 344 343 343 342 343 344 342 333 323 320 320 320 320 321 321
338 337 340 345 347 345 344 341 341 344 343 342 349 352 351 350 351 351 350 348 346 345 345 345 345 344 344 344 344 345 346 346 346 347 345 346 346 343 339 334 330 328 328 329 329 329 328 329 330 333 335 336 335 335 336 336 338 339 338 337 337 337 338 340 341 341 341 341 341 341 341 341 340 341 342 342 341 338 329 322 320 320 320 320 320
339 339 341 346 347 347 345 341 343 344 343 346 351 352 351 350 349 351 352 350 347 345 345 345 344 344 344 344 344 345 346 347 347 346 345 346 346 345 344 338 330 331 335 336 334 330 329 330 331 334 334 335 336 336 337 339 341 341 339 338 339 337 336 337 337 337 337 337 338 338 338 338 337 337 338 338 339 339 337 331 324 321 320 321 320
340 339 341 344 347 348 346 343 343 343 346 351 352 352 353 352 351 350 351 352 349 346 346 345 343 343 344 344 344 345 346 346 346 346 345 345 345 345 346 343 340 338 337 340 338 332 330 331 332 333 334 335 337 339 340 343 344 342 340 339 341 338 334 334 334 334 336 338 339 340 340 339 338 336 334 335 335 336 337 336 333 327 323 321 321
340 339 341 342 345 347 345 344 344 344 348 352 352 352 351 350 351 349 349 352 350 348 346 345 344 343 343 343 343 344 345 345 345 346 346 345 344 345 345 344 345 340 333 337 342 338 331 331 333 336 338 339 339 341 343 345 345 344 341 339 341 340 337 336 336 337 338 340 341 342 343 342 341 339 337 334 333 334 334 334 335 334 330 324 321
339 339 341 342 345 346 344 344 345 347 351 354 354 351 347 346 347 348 350 351 349 347 346 346 344 343 344 343 343 344 344 345 346 345 345 345 344 345 346 344 345 343 340 341 344 343 334 330 334 338 341 341 341 343 344 345 344 344 343 339 339 340 339 338 338 339 339 341 341 342 343 344 343 342 341 338 335 334 333 332 332 334 336 330 324
339 339 341 342 344 345 345 345 347 350 352 353 351 347 346 345 345 348 352 351 348 346 346 346 344 343 344 344 343 344 344 345 346 344 344 344 343 344 345 345 344 343 343 338 337 340 337 332 335 339 340 341 344 345 344 345 343 343 342 338 337 337 337 337 337 339 340 341 342 342 343 344 345 345 343 342 339 336 333 331 331 333 337 336 330
339 340 341 342 342 344 345 345 348 349 348 349 347 345 346 346 348 352 352 350 349 347 345 345 344 344 345 344 343 344 345 345 345 343 343 342 342 343 343 344 344 343 343 339 338 343 342 338 337 339 340 342 346 346 345 346 344 342 341 338 336 335 336 336 337 338 338 340 341 342 344 344 346 347 346 345 342 340 336 333 331 332 335 338 336
341 341 341 342 342 343 345 345 346 347 347 347 346 346 346 346 350 353 353 351 348 347 346 344 344 345 345 345 345 344 345 345 344 342 342 341 341 341 342 342 342 342 344 344 344 346 344 340 337 339 343 344 344 345 347 347 343 341 341 339 337 335 336 336 336 338 338 340 341 342 344 345 346 347 349 348 345 343 340 337 333 332 334 336 338
342 341 341 343 342 343 348 348 345 346 346 345 346 348 348 350 351 351 353 351 347 347 346 345 345 346 346 345 345 345 344 344 344 342 341 340 341 340 340 342 342 342 344 345 344 345 345 342 341 343 344 343 341 343 347 346 341 341 340 340 341 339 338 338 338 339 339 339 341 343 344 345 347 347 349 350 347 345 343 340 335 334 335 334 337
342 341 342 343 344 345 347 347 345 344 346 348 350 351 351 352 352 351 353 352 349 347 346 347 347 345 348 347 346 347 345 344 344 343 342 340 340 340 341 342 342 343 345 344 343 344 345 346 346 347 346 346 345 345 348 346 343 343 341 341 343 342 342 342 341 341 340 339 340 343 345 345 346 347 348 350 349 347 345 342 338 336 337 336 335
342 342 342 343 344 345 345 347 349 345 345 350 351 350 351 353 352 353 354 352 350 349 346 346 347 346 348 349 349 349 348 348 346 343 343 341 340 340 341 342 342 343 344 344 343 344 344 345 347 347 348 349 348 347 349 347 345 345 344 342 342 343 344 343 343 343 342 341 341 342 344 345 345 346 348 351 349 347 346 345 342 339 339 339 337
343 341 342 342 343 344 343 346 351 349 344 346 350 352 353 353 352 351 351 349 350 351 348 346 347 348 348 349 349 350 348 349 348 346 345 342 342 342 341 341 342 342 343 343 343 343 344 345 346 347 348 348 347 348 349 347 346 346 345 344 342 343 345 345 344 344 343 343 342 343 344 345 345 345 347 350 349 345 346 346 345 343 340 340 340
345 342 342 343 343 344 344 343 349 351 346 347 352 353 351 349 346 345 345 345 348 351 350 347 346 347 349 349 348 348 348 348 348 348 347 344 343 343 343 342 342 343 342 342 343 343 345 346 345 346 347 348 347 347 348 347 346 346 346 345 344 344 346 346 346 345 344 344 343 344 345 346 347 347 348 348 344 339 341 345 346 345 342 340 341
345 344 344 344 344 344 344 342 345 348 348 352 353 350 346 343 342 344 344 345 347 349 350 350 350 349 349 351 350 349 348 347 347 347 347 346 344 343 344 343 344 344 343 344 344 344 345 345 346 346 346 348 348 347 348 346 346 347 347 345 345 346 345 346 347 346 346 345 345 345 346 347 348 348 349 343 336 331 332 338 343 344 342 338 340
345 346 345 344 344 344 345 345 347 349 349 351 350 346 343 342 344 346 345 344 345 347 350 352 352 351 351 351 351 350 349 349 348 347 347 347 345 343 343 343 345 346 345 345 345 345 346 345 345 345 346 348 348 349 348 344 344 347 347 345 345 346 345 346 347 347 347 346 346 346 346 348 349 349 349 341 330 327 326 328 336 340 340 336 338
350 349 346 345 344 343 347 349 349 350 348 347 349 350 350 350 349 346 342 341 343 345 349 351 351 350 351 351 350 349 350 350 349 350 349 348 347 344 343 344 344 345 346 346 346 346 346 346 346 346 347 348 347 347 346 343 344 344 344 345 345 345 345 346 347 347 348 346 345 347 347 348 349 349 350 340 329 328 326 324 328 333 336 335 336
351 352 349 349 347 344 347 349 349 348 347 347 351 352 354 355 351 346 345 343 342 343 346 350 352 351 351 352 351 350 350 350 349 349 349 350 349 346 345 345 344 345 346 346 346 346 346 347 347 347 348 349 347 342 343 347 349 346 343 344 345 345 345 346 346 347 347 344 343 345 346 348 347 348 349 339 330 331 330 327 328 329 333 336 336
348 351 351 351 349 345 345 348 347 346 346 347 347 347 350 354 353 350 351 348 345 345 345 348 351 351 353 353 352 351 352 350 349 349 349 350 348 346 347 346 343 344 346 346 346 345 347 347 348 349 349 350 348 343 344 349 350 347 343 343 344 344 345 346 345 344 343 340 340 342 344 345 345 346 345 336 331 335 335 333 332 332 333 336 338
347 348 350 351 352 349 345 346 346 345 344 344 344 343 344 350 353 352 354 352 348 347 346 348 349 347 351 353 352 353 353 352 351 350 349 349 348 348 350 349 346 344 346 348 347 344 346 348 348 350 349 347 345 343 343 346 349 346 341 344 348 346 344 345 343 340 339 338 339 340 340 341 342 343 339 332 332 336 338 338 338 336 335 337 339
350 347 347 348 351 350 345 345 346 344 344 344 345 346 343 346 349 349 354 354 348 347 349 352 352 350 350 351 352 353 353 353 352 351 351 351 351 352 351 352 349 347 346 347 347 346 346 348 347 350 352 346 341 343 342 342 349 346 341 346 351 347 342 340 339 338 338 338 337 337 338 340 341 339 334 331 334 337 337 340 340 339 338 337 340
351 346 345 344 347 348 346 347 346 342 344 343 345 351 347 346 348 345 350 356 350 347 350 352 353 352 351 350 350 351 353 353 352 353 354 352 353 353 352 352 352 351 349 347 348 348 347 349 347 350 354 348 341 346 346 347 350 347 344 348 350 347 342 338 338 337 336 335 333 333 336 339 338 335 332 333 336 338 338 340 341 342 341 339 339
352 349 347 344 344 345 346 351 350 346 347 346 346 348 346 348 350 346 349 356 353 349 350 353 353 352 352 352 351 352 353 352 350 353 354 352 352 354 353 352 353 354 352 351 351 350 348 348 347 349 353 350 345 348 351 352 351 346 344 346 348 349 344 337 336 334 330 329 329 332 336 338 338 335 335 336 337 338 339 339 341 343 343 341 339
353 353 352 348 345 344 345 350 353 350 350 351 348 345 344 349 351 348 349 352 351 351 350 350 352 353 353 353 353 353 354 352 351 354 355 352 352 355 354 354 355 355 355 355 354 352 351 349 349 349 351 353 351 351 351 352 351 347 345 346 349 347 339 334 333 328 327 328 328 330 334 336 338 337 336 336 335 336 336 336 336 338 339 340 338
353 352 353 353 350 347 344 348 352 351 350 351 349 344 343 348 351 350 351 349 346 349 350 350 352 353 351 351 351 352 354 354 353 353 354 353 353 355 355 355 356 356 356 357 355 353 352 352 353 351 350 353 353 351 351 352 352 351 348 348 347 340 335 338 335 328 325 326 326 328 329 330 332 332 332 332 331 331 332 332 331 330 331 334 335
354 351 352 355 355 352 350 351 354 354 352 353 353 349 344 347 351 352 353 350 345 347 351 353 355 353 349 348 348 349 351 353 354 354 354 354 354 354 355 355 356 356 356 356 357 356 354 353 355 353 351 352 352 352 353 352 352 352 350 349 347 340 341 344 340 333 329 325 325 325 325 326 326 327 327 326 326 326 327 328 327 326 326 327 329
355 354 354 354 355 355 354 354 354 355 353 350 352 353 347 345 347 349 350 347 344 346 349 350 352 353 349 347 347 347 347 349 351 354 354 355 355 354 355 355 355 357 357 357 357 357 353 351 354 356 354 353 353 353 353 353 352 352 350 349 347 345 345 344 340 339 336 329 326 325 325 325 324 324 325 324 324 324 324 325 325 324 325 326 326
355 355 355 355 354 354 355 355 354 354 351 346 350 354 352 348 349 352 352 348 344 345 345 344 346 349 348 346 347 347 347 348 350 353 354 354 355 355 355 355 356 356 358 358 357 356 355 354 355 356 354 353 354 354 353 353 352 350 348 347 346 345 344 343 341 340 341 336 329 325 325 325 324 324 324 324 324 325 325 325 326 326 327 327 327
354 355 355 355 354 352 353 353 350 351 350 348 352 355 351 349 350 352 355 354 351 349 349 347 347 349 349 348 349 350 352 353 353 353 354 353 353 355 355 355 356 356 357 359 356 354 355 354 352 353 354 353 353 353 352 351 351 349 348 347 345 344 343 343 342 340 342 340 333 327 326 324 325 326 326 326 326 326 326 327 327 328 328 328 329
354 355 354 355 355 350 350 349 346 347 350 350 353 354 351 350 350 350 351 353 352 352 353 353 352 353 351 350 352 353 353 353 351 351 353 355 354 354 354 354 356 355 356 357 354 351 352 352 349 350 351 349 350 351 350 349 348 348 347 345 344 345 344 342 341 341 342 341 338 335 330 324 324 326 327 328 329 329 330 328 328 328 329 329 331
353 354 354 355 354 350 349 350 347 346 349 349 350 353 355 355 353 352 353 351 350 350 351 351 349 349 349 350 352 352 352 351 351 352 354 355 354 354 354 354 355 355 355 354 352 349 347 348 347 347 346 347 349 350 347 345 346 346 347 346 344 345 344 341 340 342 341 339 341 341 336 332 330 328 326 328 330 331 331 331 329 328 329 330 331
353 354 354 354 354 351 349 351 351 348 347 348 348 350 355 356 354 354 354 353 352 351 350 350 350 349 349 350 351 351 351 351 351 353 352 352 352 353 354 353 353 353 353 352 351 349 347 347 349 349 349 351 352 350 347 343 342 342 344 346 345 346 345 341 338 340 341 340 340 339 338 339 336 331 327 327 329 332 333 334 332 330 329 330 330
353 354 354 353 353 352 349 349 351 349 345 346 346 346 350 354 354 353 353 354 354 352 351 352 353 353 352 352 352 351 351 351 351 352 352 351 352 353 353 353 352 351 351 351 352 351 351 351 351 350 350 350 349 348 348 347 343 342 345 347 346 346 346 342 337 337 338 338 337 338 339 340 337 335 332 330 329 331 333 334 334 332 331 330 330
353 353 353 353 353 352 351 349 350 349 346 345 345 344 346 350 352 352 352 353 353 353 353 353 353 353 353 352 352 352 352 352 351 350 351 352 352 352 352 352 350 348 348 350 351 350 349 349 349 349 348 347 347 348 349 348 348 348 348 348 346 344 345 345 343 341 339 337 339 342 342 339 339 342 341 336 336 337 336 336 337 336 333 330 329
352 353 353 352 352 351 352 351 350 349 348 348 349 347 347 349 352 353 352 353 353 353 354 353 353 353 352 352 351 350 351 349 345 343 344 345 345 346 347 347 346 345 345 347 348 347 347 349 349 349 348 348 348 347 347 347 347 348 347 347 347 345 344 344 343 342 343 344 345 344 339 334 339 345 342 338 342 345 344 344 346 345 339 333 329
346 349 350 352 352 351 351 351 350 347 345 346 347 344 341 344 349 351 353 353 352 351 352 352 352 352 352 351 351 350 347 341 337 336 337 338 338 339 341 343 343 344 343 345 348 349 349 349 349 349 348 347 346 345 345 345 344 344 345 346 347 346 345 343 340 337 339 344 345 343 337 334 340 345 341 339 343 346 348 349 348 347 343 336 332
339 340 342 346 348 349 349 348 348 346 344 344 344 337 333 336 341 344 348 350 350 349 349 351 351 352 352 352 351 351 347 343 341 340 339 340 340 340 341 342 342 342 341 342 345 347 348 350 349 348 348 347 347 347 345 343 343 343 344 344 345 346 346 347 346 341 337 340 343 342 339 339 344 346 345 345 345 347 349 349 345 344 343 338 334
341 337 336 337 339 342 346 348 348 347 345 345 343 337 332 334 336 338 343 348 351 350 351 352 352 352 351 351 351 350 349 348 348 345 343 343 343 343 343 343 342 342 342 341 340 340 342 344 346 347 347 347 348 347 344 343 343 343 341 341 343 346 347 349 350 347 342 341 342 343 343 343 345 348 349 351 350 350 351 348 343 343 344 340 335
345 340 337 336 335 337 342 346 348 347 347 347 342 336 333 334 335 337 339 345 350 350 351 352 352 351 351 350 349 349 349 349 347 344 343 343 343 344 344 343 343 343 342 342 341 340 340 341 343 344 344 345 346 344 342 342 342 342 341 341 343 345 346 346 346 346 345 343 342 344 344 344 346 349 351 351 351 352 352 350 345 344 345 343 338
349 343 339 338 337 336 338 341 343 344 348 349 343 336 334 335 335 337 338 341 346 349 350 351 350 350 350 348 346 347 348 348 345 343 343 344 343 343 344 344 344 343 343 343 343 343 343 343 344 343 343 343 344 343 343 344 344 344 344 344 344 345 344 343 343 343 344 343 344 346 346 344 348 352 351 351 351 352 353 352 350 346 346 346 342
350 348 344 343 343 342 340 341 341 342 348 351 347 340 338 338 336 338 339 341 344 347 347 347 346 346 347 346 344 343 343 344 343 342 343 344 343 343 344 344 344 344 344 344 345 346 346 346 346 346 346 347 347 347 347 348 349 348 348 346 346 346 344 344 343 344 345 346 347 350 350 348 349 352 352 352 352 353 353 353 351 348 347 347 345
351 350 348 349 350 348 346 346 348 349 351 352 350 346 343 342 339 340 342 343 345 346 346 346 346 346 346 345 344 344 343 343 342 342 342 342 342 342 343 343 343 345 346 347 346 345 345 346 346 347 348 348 349 349 349 349 349 350 350 349 348 348 348 347 347 347 349 350 349 351 352 351 352 353 353 353 354 354 353 352 353 352 349 347 348
352 351 350 351 351 351 350 350 351 352 352 351 350 348 347 346 345 345 345 346 347 347 347 348 349 349 349 347 347 347 346 345 344 342 341 341 341 342 342 342 343 345 346 347 347 346 345 345 344 344 345 346 347 347 347 348 348 348 349 349 349 350 350 350 350 350 351 351 350 350 352 352 353 354 354 355 355 355 354 354 355 355 352 347 346
352 352 352 352 351 350 351 351 352 353 353 352 350 350 349 349 349 349 349 349 349 350 350 351 351 351 350 349 348 348 347 346 344 343 343 342 342 342 343 343 343 344 345 349 351 351 352 352 349 346 345 346 346 346 346 347 347 348 349 349 349 350 351 352 351 351 352 352 352 352 353 353 354 354 355 355 355 355 355 356 356 355 353 351 349
351 352 352 352 351 349 349 350 351 353 353 352 351 351 351 350 350 350 350 350 350 351 351 352 353 352 351 350 349 348 347 347 345 345 345 345 344 345 345 345 346 348 350 351 352 352 353 353 352 350 348 348 347 347 346 345 346 346 346 347 347 348 350 351 351 352 353 353 353 353 353 353 354 355 355 355 355 355 355 355 356 356 355 355 354
Wind_Speed
16 16 16 16 17 18 17 16 16 15 14 12 11 10 9 9 9 8 8 7 6 7 8 6 7 7 7 7 7 7 8 6 6 6 4 4 5 5 6 6 7 7 8 9 10 10 11 11 12 12 12 12 11 11 10 10 11 11 11 11 11 11 11 10 10 10 10 10 10 11 11 12 12 12 12 13 13 13 13 13 12 12 13 13 14
16 17 18 18 18 19 17 17 17 14 12 12 12 10 9 8 7 6 6 6 5 7 8 6 6 6 6 7 6 6 6 6 6 6 5 5 5 6 7 7 7 8 9 11 11 12 12 12 13 12 12 12 11 11 11 11 12 12 12 12 12 11 11 11 11 11 11 12 12 13 13 13 13 13 14 14 14 13 13 13 13 13 13 13 13
16 18 18 18 18 19 17 16 15 14 12 11 11 10 9 9 9 8 7 7 6 8 9 7 6 6 6 6 6 5 5 5 5 5 5 5 6 7 7 8 8 9 11 11 12 13 13 13 13 12 12 12 11 12 12 12 12 12 12 12 12 12 12 12 12 12 12 13 13 14 14 14 14 14 14 14 14 14 14 14 14 14 14 14 14
17 18 18 18 18 17 15 14 13 13 11 11 12 12 11 12 13 11 9 7 7 8 8 7 6 6 6 6 5 5 5 5 5 5 4 6 8 8 8 9 9 10 11 11 12 13 13 12 12 12 11 11 12 12 11 12 12 12 12 12 12 12 13 13 13 13 13 14 14 14 14 14 14 14 14 14 15 16 16 16 14 14 15 15 16
17 18 18 17 16 15 13 12 12 12 12 13 14 12 10 9 11 9 8 7 6 7 7 6 6 6 5 5 5 4 4 4 4 4 4 5 6 7 8 9 10 10 10 11 12 12 12 12 12 11 11 11 11 11 12 12 12 12 12 13 13 14 14 14 14 14 14 14 14 14 14 14 14 14 14 15 16 16 17 16 14 13 14 14 14
16 17 16 15 14 13 12 11 11 11 12 13 10 8 7 7 6 6 6 6 6 6 6 6 5 5 5 5 4 4 4 4 3 4 4 3 4 6 7 8 10 10 10 11 12 12 11 11 11 11 11 11 11 11 12 12 12 13 14 14 15 15 15 15 14 14 13 13 13 14 14 14 14 14 15 15 17 17 16 15 14 12 11 11 11
13 14 15 13 11 11 10 10 11 10 10 11 8 6 6 6 5 5 4 5 5 6 6 5 5 5 4 4 4 4 4 3 3 3 3 3 3 4 6 8 9 10 11 11 11 11 11 10 10 10 11 11 11 11 11 12 13 14 15 15 15 15 14 15 14 13 13 13 14 14 14 14 14 15 15 16 17 18 16 14 13 12 11 10 10
12 12 13 12 9 9 9 10 10 9 8 9 7 5 5 5 5 4 4 5 5 5 5 5 5 5 4 4 4 4 4 3 3 3 2 3 3 4 5 8 10 11 12 11 10 10 10 9 10 10 11 11 11 11 12 13 14 15 15 15 15 15 15 15 15 14 14 15 14 14 14 14 15 16 16 16 17 18 17 15 13 12 12 11 11
11 12 11 10 9 8 8 9 9 8 8 7 5 4 4 4 4 4 4 4 5 5 5 4 4 4 4 4 3 3 3 3 3 3 3 3 3 3 3 5 9 10 9 8 8 8 9 9 10 10 11 11 11 12 13 14 14 14 14 15 16 16 16 16 16 16 16 17 17 16 16 17 17 17 17 17 17 17 18 17 15 14 13 13 13
10 11 10 9 9 7 8 9 8 8 7 6 5 4 4 4 4 4 4 4 4 4 4 4 4 4 4 3 3 3 3 2 3 3 3 3 3 3 3 3 4 6 7 6 5 7 8 9 10 11 11 11 11 12 13 13 13 13 13 14 16 17 17 17 18 18 19 19 19 20 20 20 21 20 19 18 17 17 18 18 17 16 16 16 16
9 9 9 9 8 8 8 8 8 8 7 5 4 4 4 5 4 5 5 4 4 4 4 4 3 3 4 4 3 3 2 2 2 2 2 2 2 3 3 3 3 4 7 7 5 5 7 9 10 10 10 11 12 12 12 12 12 12 12 13 14 16 17 18 19 19 19 20 20 21 21 22 23 23 22 20 19 19 18 18 18 18 18 18 17
9 9 9 9 8 8 8 8 8 7 6 5 4 4 5 6 6 5 5 4 4 4 3 3 4 4 5 5 4 3 2 2 2 1 2 2 2 3 3 2 2 3 4 5 4 3 6 10 10 9 9 10 11 12 12 12 12 13 13 13 13 14 16 17 18 18 19 20 20 21 21 22 23 23 23 23 22 21 20 20 19 19 19 19 18
10 10 9 9 9 8 8 8 7 7 6 5 4 5 6 6 6 5 4 3 4 4 4 4 4 5 5 5 5 4 3 2 2 2 2 2 2 2 3 3 2 2 3 4 6 5 5 9 9 8 8 9 9 10 11 12 13 13 13 13 13 13 14 15 16 17 18 19 20 21 21 22 23 23 24 23 23 22 22 21 21 20 20 20 20
10 10 9 9 8 8 8 8 7 6 6 5 4 5 5 5 5 4 3 3 4 3 4 5 4 5 6 6 6 5 4 3 3 3 2 3 3 2 3 3 2 2 3 4 6 5 4 5 6 6 7 8 8 8 10 11 11 12 13 13 14 13 13 14 15 16 17 18 19 20 21 22 22 23 23 23 23 23 23 23 22 21 21 20 21
9 9 9 9 9 9 7 7 6 6 5 4 4 3 3 4 4 2 2 3 3 4 5 5 5 5 5 5 6 6 6 4 4 4 3 3 3 3 3 3 3 3 3 4 4 3 3 3 5 6 7 8 7 7 8 9 10 11 12 13 14 14 14 14 15 16 17 18 19 20 21 21 22 22 22 23 23 23 23 23 23 22 21 21 21
8 9 10 9 10 10 8 7 6 5 4 3 3 2 2 3 2 2 2 2 3 4 4 5 5 4 4 4 5 5 6 5 5 5 3 4 4 4 4 4 3 3 4 3 2 3 3 4 6 7 8 8 8 8 7 8 9 11 11 13 14 15 15 15 15 16 17 17 18 18 19 20 21 21 21 22 22 22 22 23 22 22 22 23 22
8 9 9 9 10 10 8 7 5 4 4 2 2 3 3 2 1 1 2 3 3 3 4 5 5 6 6 4 4 5 5 4 4 4 4 4 4 4 4 4 3 2 3 2 1 3 3 3 5 6 7 7 7 8 7 8 10 12 11 12 13 14 15 16 16 16 17 17 17 18 19 20 21 21 21 21 21 21 21 22 22 22 23 24 24
8 9 9 9 9 9 8 6 4 4 4 3 3 3 2 2 1 1 1 2 4 3 4 4 4 6 6 5 5 5 4 3 3 4 4 4 4 4 4 3 2 2 2 2 1 2 1 1 3 4 4 5 6 7 7 8 11 12 12 11 11 14 16 17 17 17 18 18 18 18 18 20 20 21 20 20 20 20 19 20 21 21 23 24 25
8 9 9 9 8 8 8 7 5 4 4 4 3 2 2 3 2 2 1 2 4 3 3 3 3 4 4 4 4 4 4 5 4 4 4 3 3 4 4 3 2 2 2 2 1 1 1 1 2 2 3 4 5 6 6 8 11 12 12 11 11 13 16 17 18 18 18 18 18 18 18 19 20 20 20 20 20 20 18 19 20 21 22 23 25
9 10 10 9 8 7 7 7 6 5 4 3 3 3 4 4 3 2 1 1 2 2 2 3 2 2 2 2 2 3 4 5 4 4 3 3 4 3 3 4 3 3 2 2 2 1 1 1 1 2 2 4 5 6 6 8 11 12 13 12 11 13 15 16 18 18 19 19 19 18 19 19 20 20 20 19 20 20 18 18 18 20 22 23 24
9 10 9 9 8 7 7 6 6 5 5 4 4 4 4 3 2 2 1 1 1 1 1 2 2 1 1 1 2 2 2 2 3 3 2 3 4 3 3 3 3 2 2 1 2 2 1 2 2 2 3 4 5 6 6 9 10 10 11 12 11 13 15 16 17 18 19 19 19 19 19 19 19 20 20 19 19 19 19 17 18 19 21 22 23
8 9 9 8 8 7 6 6 5 5 5 5 5 4 3 3 2 2 3 2 3 2 1 1 0 0 0 1 1 1 1 1 1 2 2 1 1 2 2 1 1 2 1 1 1 2 2 3 3 3 4 5 6 6 7 10 11 9 11 13 13 13 15 15 17 18 19 19 19 18 19 19 19 19 19 19 19 19 19 18 17 18 20 21 22
8 8 8 7 7 7 7 6 6 6 6 6 4 3 2 3 3 4 4 3 3 3 2 2 2 2 2 2 1 1 1 1 0 0 1 1 1 1 0 0 1 1 1 1 1 2 3 3 4 4 4 5 6 7 9 12 13 12 13 14 14 15 15 16 17 18 19 20 19 18 18 19 19 18 18 18 18 18 18 18 17 18 19 20 21
9 8 8 8 8 8 8 8 7 7 7 6 5 5 4 3 4 4 4 3 3 3 3 3 2 3 3 3 3 2 2 2 2 1 1 1 1 2 2 2 3 1 1 2 2 3 3 3 4 4 5 6 8 9 10 11 13 15 15 14 15 15 16 17 18 19 20 20 19 18 17 18 18 17 16 16 16 17 18 18 18 18 18 19 21
9 9 8 8 8 8 8 8 8 8 7 7 7 7 6 4 4 4 4 4 3 3 4 4 4 4 3 3 3 3 3 3 3 3 3 2 2 4 4 3 4 4 2 3 4 4 4 4 4 5 6 6 8 11 10 9 12 16 15 14 16 16 16 18 19 20 21 20 18 16 17 17 17 16 15 14 15 16 17 18 18 18 18 19 20
9 9 8 9 8 8 8 8 8 8 8 8 7 8 7 6 5 5 4 5 5 4 4 4 5 5 5 4 4 4 4 3 4 4 4 4 4 4 4 5 6 6 4 4 5 6 6 5 5 6 7 9 11 13 13 10 11 16 16 13 15 17 17 19 20 20 19 17 16 16 16 16 16 14 13 13 14 15 16 17 18 18 19 18 19
8 9 9 9 9 9 9 8 8 8 8 8 7 6 7 6 6 6 5 5 5 4 4 4 4 5 5 5 5 4 4 4 4 5 4 4 4 4 4 5 7 7 6 6 6 7 7 7 7 7 8 13 14 14 16 13 11 16 17 13 14 18 19 19 19 18 16 16 16 16 16 15 14 13 12 13 15 16 17 17 18 18 19 19 19
8 9 9 10 9 9 8 8 8 7 7 7 6 6 7 6 7 7 5 4 5 5 4 4 4 5 5 6 6 5 5 5 4 4 5 5 4 4 4 5 6 7 7 7 7 7 7 7 9 7 9 15 14 12 15 13 12 16 17 14 15 18 19 18 16 16 15 15 16 15 15 14 13 12 13 14 16 17 18 18 18 18 18 18 19
8 8 9 9 9 9 8 7 7 7 6 6 6 7 7 6 7 7 5 5 6 6 5 5 4 5 5 6 6 6 6 7 5 4 6 7 5 4 5 5 6 7 8 8 8 8 8 8 9 8 11 16 14 11 11 11 13 16 16 14 14 15 17 16 15 15 15 15 15 14 13 13 12 12 13 15 16 17 18 18 19 18 18 18 18
9 9 9 9 9 10 9 9 8 7 7 6 7 7 7 6 7 7 6 6 7 6 6 6 5 5 6 6 6 6 6 7 6 5 7 7 5 5 6 5 6 7 8 9 10 9 8 9 9 9 11 13 11 9 10 10 14 17 16 14 13 14 15 14 13 13 14 14 14 12 12 12 13 13 14 16 17 18 18 19 19 20 19 18 17
11 11 10 9 9 10 9 9 9 8 7 7 7 7 6 6 6 6 6 7 7 6 6 6 5 6 7 7 7 7 7 7 7 6 7 7 6 6 6 6 7 8 8 10 11 10 9 10 10 9 10 10 10 10 10 9 13 17 16 14 14 14 14 13 13 14 13 14 14 13 14 14 14 15 17 18 19 20 20 20 20 21 20 19 18
11 11 11 10 10 10 9 9 8 8 8 7 7 7 7 6 6 5 7 9 7 6 7 6 6 7 7 7 8 7 7 7 7 6 7 7 7 7 7 8 8 8 9 10 11 12 11 10 11 10 9 10 10 11 11 10 11 14 15 14 14 14 12 11 13 15 15 15 15 15 16 16 17 18 19 20 20 21 21 21 21 21 21 20 19
11 11 11 11 11 11 10 10 9 9 9 9 8 8 7 7 7 7 8 8 7 6 7 7 7 8 8 8 8 8 8 8 7 7 7 7 7 7 7 8 8 8 9 10 11 12 12 11 10 11 10 10 11 10 11 11 11 12 13 12 12 12 11 10 11 15 17 16 16 17 18 18 19 19 19 20 20 20 21 21 21 21 20 20 20
12 12 12 11 12 11 10 11 11 11 11 9 8 8 8 7 6 6 7 7 6 6 7 7 7 7 8 8 7 7 7 7 7 7 7 7 7 7 7 7 8 7 8 10 11 12 13 12 11 12 11 10 11 11 12 12 13 13 12 11 10 10 11 11 11 13 17 18 17 18 19 19 20 19 19 20 20 20 20 21 21 20 20 20 20
12 13 12 12 12 12 11 12 12 11 11 9 9 10 9 8 7 7 7 7 7 7 7 7 7 7 8 8 7 6 6 7 7 7 7 7 7 8 8 8 8 8 8 9 12 13 13 13 13 13 12 12 12 13 13 13 13 13 12 11 11 10 11 11 12 13 17 20 20 19 19 19 20 20 20 21 21 21 21 21 20 20 19 19 20
13 13 13 12 13 13 12 12 12 11 11 10 10 10 10 9 8 8 8 8 8 7 7 7 7 7 8 7 7 7 7 8 8 7 7 7 7 7 8 8 9 9 8 9 12 13 13 14 14 14 14 15 14 14 13 13 12 12 12 12 12 12 12 13 13 13 16 20 22 22 22 22 21 21 20 21 22 22 22 22 21 19 19 18 18
13 13 13 13 13 13 12 12 11 11 11 11 11 11 10 9 9 8 8 8 7 7 7 8 8 8 8 8 8 7 8 8 8 7 7 7 7 7 7 8 8 9 9 10 11 13 13 15 16 16 16 16 15 15 14 14 12 12 13 13 13 14 14 15 14 14 17 19 20 22 23 23 23 23 22 22 22 22 22 22 21 19 18 17 17
15 14 13 13 13 13 13 12 11 11 11 11 11 11 11 10 10 10 9 8 8 8 8 8 8 8 8 8 8 8 8 9 8 8 9 9 8 8 8 9 9 9 10 11 12 13 14 15 15 16 16 15 15 16 16 15 15 15 15 15 14 14 15 17 18 17 16 17 18 20 21 21 23 26 26 25 23 23 22 21 20 20 19 18 18
16 15 14 13 13 13 13 12 12 12 12 12 12 12 12 12 12 11 10 10 9 9 8 8 8 9 9 9 9 9 9 9 9 9 9 9 9 9 9 10 10 10 10 10 11 12 13 14 14 15 15 15 16 17 16 16 18 17 16 15 16 17 17 20 22 21 19 19 20 20 19 21 24 27 28 28 27 25 23 20 19 18 18 18 19
16 16 15 14 14 13 13 13 12 13 13 13 13 13 13 13 12 12 11 11 10 10 9 9 9 9 9 9 10 10 10 11 10 9 9 9 9 10 10 10 11 12 12 12 12 13 14 14 15 15 16 17 18 17 16 15 15 15 15 15 18 20 20 20 22 22 22 22 20 18 19 23 25 25 26 29 29 27 25 22 20 18 18 18 19
16 16 15 15 15 14 13 14 14 14 14 13 13 14 14 13 11 11 11 11 11 11 10 10 10 10 10 10 10 11 12 13 13 11 11 11 12 12 12 13 13 13 14 14 14 14 15 15 15 15 15 16 16 16 15 15 15 16 17 17 18 19 20 21 22 22 21 20 19 19 23 26 27 25 27 28 26 23 22 21 18 18 19 19 19
18 18 17 17 16 15 15 15 15 16 15 14 16 17 16 14 13 12 12 13 13 13 12 12 12 11 11 11 12 13 15 15 13 13 13 13 13 14 14 14 15 15 15 15 15 15 15 15 15 15 15 16 16 16 17 17 17 17 17 17 18 19 20 22 23 23 21 20 22 25 29 30 28 28 29 29 26 22 19 16 16 19 20 20 19
20 21 20 20 18 17 16 16 16 16 15 15 18 19 17 16 17 17 16 15 14 15 14 13 13 12 12 12 12 14 15 14 13 13 13 13 13 14 14 15 15 16 16 17 17 16 16 16 16 16 16 17 17 17 18 18 17 17 17 18 19 20 19 20 21 22 23 24 27 31 33 31 29 29 30 28 26 23 18 18 20 21 20 18 18
21 22 22 22 21 19 17 15 15 15 14 16 19 20 17 16 18 18 17 15 14 14 14 13 13 13 13 12 13 13 13 14 14 13 13 13 13 14 15 16 16 16 17 17 18 18 17 17 17 17 17 18 18 19 19 19 19 20 21 22 22 21 21 20 21 23 25 27 30 33 34 32 29 28 26 24 23 22 20 22 23 21 19 19 18
21 22 22 22 22 21 19 18 17 16 14 16 20 20 17 17 17 18 18 17 15 14 14 13 14 14 14 14 14 14 13 14 15 14 14 14 15 15 16 17 17 18 17 18 18 18 18 18 19 19 19 19 20 21 21 21 23 23 24 24 24 24 25 25 26 27 28 29 31 32 34 32 27 23 23 22 21 21 21 23 26 23 20 19 18
21 22 22 22 22 22 22 21 20 18 16 17 21 20 17 17 18 18 19 18 17 16 15 15 15 15 15 16 16 16 15 15 16 16 15 16 16 17 17 18 19 19 19 19 18 18 18 19 20 21 21 21 23 24 24 24 24 25 25 26 27 27 29 30 31 32 32 32 31 30 32 31 26 22 22 22 21 20 19 20 25 25 20 18 17
22 21 20 20 20 21 21 21 21 19 17 18 21 21 18 19 20 19 20 20 19 18 18 18 17 17 17 17 18 19 18 18 18 18 17 17 18 18 19 20 21 21 22 21 20 19 19 20 22 22 22 22 23 24 25 25 26 27 28 29 30 31 33 34 34 35 34 30 25 23 27 30 28 24 24 22 20 20 19 19 23 24 21 17 17
22 20 19 18 18 18 19 19 19 18 16 18 22 22 20 20 21 21 21 21 21 21 21 20 20 19 18 18 18 19 20 20 21 22 21 20 20 20 20 22 22 22 22 22 22 21 21 21 22 23 23 23 25 27 28 28 28 29 30 32 33 33 34 35 36 35 32 26 20 19 23 28 27 24 24 23 21 21 22 21 20 21 21 19 18
23 23 20 18 17 17 17 18 19 18 17 20 23 23 22 21 22 22 22 21 21 22 22 21 21 21 20 20 20 19 19 21 23 24 24 23 23 23 23 23 23 23 22 21 22 23 23 24 25 26 26 27 28 29 28 27 27 27 29 32 32 32 32 32 33 33 30 27 22 20 22 26 25 23 23 24 22 23 23 21 17 18 23 25 23
21 21 21 19 17 17 17 18 18 18 18 21 24 23 22 22 23 23 22 22 21 21 21 21 21 21 22 23 23 21 21 22 24 24 24 24 24 24 25 24 24 24 23 20 19 19 20 22 25 27 29 30 31 30 28 25 24 24 27 29 30 29 30 31 31 31 31 29 24 20 21 23 23 22 22 23 22 21 19 18 18 19 23 25 24
18 18 18 17 17 17 17 17 16 15 16 20 22 22 20 20 21 22 22 23 22 21 20 20 19 21 23 25 25 25 24 24 25 24 23 23 23 23 24 23 23 22 20 19 19 19 19 21 24 27 30 32 33 32 30 27 25 25 27 28 28 28 30 31 31 29 29 26 21 20 22 23 21 20 20 21 23 23 21 19 19 20 20 21 23
Wind_Direction
123 126 127 129 131 130 129 129 127 124 124 128 129 130 132 125 117 114 113 111 113 116 109 103 103 102 100 91 88 87 87 88 83 87 90 83 75 63 68 75 80 87 91 93 96 100 102 99 95 91 88 84 80 74 69 64 60 57 53 49 44 40 34 27 20 12 5 358 351 346 342 339 338 336 332 328 326 323 320 317 312 309 305 301 300
126 128 128 128 129 129 129 129 126 124 128 130 128 128 127 122 118 114 112 112 118 119 112 111 108 101 99 96 93 87 83 82 75 74 74 73 76 68 68 79 87 94 99 101 105 105 101 97 92 88 84 79 74 70 64 60 57 53 49 45 40 33 25 17 8 1 354 348 344 342 339 338 338 337 337 334 332 330 327 324 320 317 313 309 307
129 127 127 126 127 127 126 126 125 124 126 123 120 121 120 120 121 117 112 110 112 112 109 106 105 98 95 95 95 91 83 83 74 72 73 70 79 75 72 84 93 99 105 107 107 104 99 94 89 83 78 74 70 66 62 58 54 49 44 38 31 23 15 8 1 356 353 349 348 347 346 346 345 345 345 343 340 337 334 332 329 326 321 318 315
129 127 127 127 127 126 125 127 126 124 123 122 121 119 115 116 117 114 110 106 104 104 104 103 102 98 97 95 94 90 85 87 84 85 81 65 71 76 76 86 97 102 107 108 104 100 95 89 83 79 74 71 69 65 60 54 48 42 37 31 25 19 13 8 3 359 356 355 355 354 355 354 352 351 351 351 348 345 341 338 334 327 321 318 316
127 128 128 128 127 124 124 127 127 125 125 124 120 115 112 112 110 107 102 100 101 100 101 104 100 98 100 95 92 93 88 84 83 87 83 63 67 77 80 88 98 103 104 102 99 95 89 84 79 74 72 70 67 62 55 48 44 40 36 32 26 20 15 10 6 2 0 0 0 1 2 1 360 359 359 359 357 352 347 342 337 328 320 314 310
127 127 127 127 126 125 127 129 128 125 126 123 115 110 112 108 101 97 96 99 102 100 100 104 99 96 98 95 94 92 88 85 86 84 90 93 85 86 89 93 99 100 98 94 91 88 82 78 75 72 71 68 63 57 52 48 46 43 38 32 26 21 16 13 10 8 7 8 9 9 9 9 8 6 5 4 3 360 356 352 348 341 332 324 317
128 127 126 124 124 127 128 131 129 122 126 125 114 109 109 103 98 93 91 98 101 100 100 100 95 94 94 97 99 87 81 86 88 84 87 97 92 97 106 105 103 100 97 91 84 80 76 73 71 70 68 63 58 54 54 52 48 42 37 32 26 23 22 21 20 18 20 20 19 18 16 16 13 11 9 7 6 6 6 4 1 357 350 346 342
132 131 127 125 128 130 129 131 127 121 126 123 110 107 107 101 99 95 92 95 97 98 98 94 92 96 96 101 102 87 85 80 75 87 105 109 102 100 103 108 111 107 98 90 82 75 71 69 67 65 62 58 57 57 56 53 47 41 37 35 31 30 31 32 31 30 31 30 28 26 23 20 16 14 12 8 7 9 13 13 8 2 356 356 355
134 135 132 130 129 129 131 131 126 127 127 117 106 105 102 95 91 92 87 82 90 97 95 93 95 100 102 110 110 88 83 78 76 95 104 101 111 112 98 105 109 102 91 81 77 74 67 63 62 60 58 57 59 60 58 52 46 41 39 39 38 37 39 39 38 38 38 37 35 33 29 25 22 19 15 11 9 9 13 15 11 5 358 359 360
140 141 139 139 136 138 140 134 132 134 126 112 108 104 96 92 84 88 88 80 85 90 88 93 101 106 106 112 119 100 84 78 81 96 95 88 107 122 125 122 108 100 101 98 81 72 69 64 61 60 58 59 63 61 57 52 45 43 44 45 43 41 42 42 42 40 40 38 36 35 32 30 28 25 21 16 12 11 12 12 11 8 3 2 2
149 148 148 149 146 147 142 136 140 136 124 110 102 102 104 103 96 89 84 81 81 80 82 90 95 101 105 112 115 106 99 91 87 94 105 113 119 119 123 120 114 106 99 93 78 60 66 71 68 66 62 59 61 58 53 48 43 43 45 49 46 42 40 38 38 36 34 33 30 30 29 29 28 27 24 21 17 14 13 11 10 8 7 7 6
155 155 154 153 152 150 143 144 147 136 123 111 107 114 112 109 109 97 78 75 80 73 72 86 99 102 106 115 113 104 100 95 108 117 113 130 141 132 130 121 121 119 94 87 95 83 75 80 75 71 66 59 56 52 49 47 45 44 44 47 46 40 35 31 30 29 27 26 23 22 22 23 25 24 23 21 19 15 13 12 10 8 8 9 8
160 157 156 155 152 149 148 150 146 136 127 120 122 122 114 110 106 94 69 74 80 70 78 91 103 112 117 119 109 101 96 86 102 132 137 142 151 140 136 136 115 105 103 98 98 91 79 80 76 70 63 56 51 46 46 47 46 45 42 42 41 36 31 26 23 22 21 21 18 17 17 18 19 21 21 20 18 15 13 13 11 9 8 9 9
162 159 157 156 155 152 152 151 146 140 129 117 114 111 114 110 94 81 63 77 80 72 100 106 100 115 127 128 119 105 94 88 97 113 134 140 147 144 131 131 122 112 109 87 76 73 68 70 71 69 62 57 53 44 42 42 41 42 41 38 36 32 28 23 20 17 17 17 14 13 13 13 14 15 18 18 17 15 13 13 13 11 8 8 9
164 160 156 157 159 156 152 154 151 139 127 118 113 113 120 108 86 75 55 69 79 71 96 105 97 115 125 125 133 118 99 94 93 96 117 132 140 147 132 123 130 127 104 78 67 74 77 79 78 72 65 61 56 48 41 37 37 39 39 37 33 30 27 22 19 15 13 12 10 9 9 10 11 11 14 16 16 14 12 12 14 14 11 9 9
167 162 158 158 157 155 155 159 157 143 138 127 113 123 131 113 100 105 68 64 85 80 89 88 86 116 125 119 136 122 104 106 96 84 104 124 129 139 131 124 125 113 93 84 89 83 70 77 84 77 69 63 56 50 41 32 33 34 34 34 31 27 24 20 17 14 10 8 6 6 5 6 7 8 9 12 13 13 12 12 15 16 14 12 10
173 169 164 161 157 156 157 157 158 156 153 135 135 165 162 148 164 110 68 68 87 93 100 84 83 106 108 111 118 98 83 93 95 78 80 107 120 129 124 124 124 102 91 98 89 79 73 69 70 65 59 53 46 42 35 29 29 27 26 29 28 24 21 18 16 13 10 7 5 4 3 3 4 5 5 7 10 11 11 12 13 15 14 13 12
176 176 173 168 163 163 162 160 169 177 168 163 170 172 160 171 197 125 73 84 91 100 112 98 88 90 86 90 90 75 60 55 83 96 84 86 111 124 119 121 126 97 83 89 69 73 96 62 30 29 24 21 27 30 26 24 25 23 21 20 22 23 20 17 14 11 8 5 4 2 1 1 1 2 3 4 6 9 10 10 11 12 11 11 11
180 181 179 176 172 171 173 171 175 186 178 168 160 154 175 206 212 187 160 116 98 100 116 114 104 91 84 88 78 73 72 58 70 103 102 87 102 118 115 120 127 101 82 81 84 79 88 27 360 353 344 355 17 25 21 16 16 17 16 15 20 22 18 14 10 7 5 2 359 359 358 358 358 359 1 1 2 5 8 8 8 9 9 9 8
181 185 182 180 176 175 181 178 178 188 185 171 171 184 202 213 221 218 200 164 123 112 127 128 121 114 105 97 80 78 76 67 70 82 93 109 119 115 105 115 115 97 86 75 69 53 41 343 333 337 328 335 356 10 12 6 6 10 11 12 14 13 9 7 4 2 359 357 354 354 355 356 355 355 358 0 1 2 5 6 5 6 6 6 6
185 187 185 184 183 183 188 187 185 191 186 184 195 201 208 207 212 227 226 219 205 177 151 128 110 108 108 88 89 87 74 80 82 74 76 99 118 119 113 126 121 92 62 49 44 31 26 344 333 330 321 322 331 346 352 350 356 360 357 1 1 357 357 357 356 355 353 351 349 349 351 353 352 351 353 358 1 1 4 4 3 2 3 4 4
194 195 194 193 195 193 196 200 198 200 197 197 202 205 212 210 207 224 229 230 224 216 210 219 263 342 299 322 76 83 87 119 92 87 93 74 113 147 138 147 141 105 36 5 11 2 360 344 334 324 319 320 319 324 329 336 345 342 335 343 348 345 346 347 347 347 346 346 345 344 347 349 348 347 347 354 1 3 5 5 2 360 360 2 3
198 205 205 202 205 202 200 207 208 208 205 200 197 203 209 211 220 230 233 234 228 222 222 240 266 280 285 285 275 263 231 197 279 24 60 6 290 249 156 344 296 114 29 335 324 327 330 335 333 326 322 317 311 313 322 329 333 332 330 333 336 336 337 339 339 340 339 339 339 339 342 344 344 342 341 348 360 4 5 7 4 360 359 1 2
199 206 209 207 211 208 205 210 213 210 206 199 195 197 194 202 224 231 233 235 234 231 223 227 253 263 274 277 264 259 259 257 260 262 285 312 298 283 288 312 284 268 350 317 296 304 308 320 327 326 324 316 309 311 323 331 321 321 329 328 325 328 329 331 333 333 333 333 334 334 336 339 339 337 336 344 357 4 6 7 6 2 359 0 1
207 208 207 210 215 215 213 214 215 212 206 200 200 199 192 199 221 220 229 242 239 240 237 233 237 233 238 261 262 265 271 273 272 264 262 271 275 274 283 295 274 271 298 292 293 293 283 300 310 308 314 312 308 308 318 326 307 308 321 324 320 323 325 326 328 328 328 328 329 330 332 334 335 335 334 341 353 360 3 6 7 5 2 360 0
216 213 208 209 213 217 216 213 216 217 210 204 206 207 197 201 217 210 224 247 239 239 247 245 249 239 231 243 251 262 271 275 279 274 267 269 272 276 290 296 280 276 278 275 289 285 275 294 301 298 304 304 304 303 305 311 298 299 312 319 318 320 322 323 324 324 325 325 326 328 330 333 336 338 338 341 348 353 356 360 3 5 3 360 359
222 216 212 209 211 216 215 213 217 219 216 212 211 216 212 210 217 210 215 246 242 233 235 233 246 247 237 236 234 243 265 275 280 282 279 280 286 292 301 305 296 288 280 277 283 278 277 292 292 288 297 303 306 303 304 311 302 300 313 319 314 315 320 323 323 323 324 323 325 327 331 337 342 343 342 342 345 347 349 351 354 358 0 359 358
222 218 215 212 211 216 214 214 220 218 221 223 213 221 230 226 227 220 213 245 248 232 230 233 240 245 244 240 233 233 247 254 261 275 280 277 286 295 296 303 302 298 294 291 288 284 286 295 295 287 289 303 314 311 309 315 305 303 314 315 312 314 320 325 324 323 325 324 326 330 335 343 347 346 343 342 342 343 343 344 346 349 353 355 355
217 215 218 215 212 215 211 209 221 221 222 231 226 229 237 234 237 235 215 230 246 238 231 235 238 242 244 245 243 240 245 251 254 264 271 272 277 287 287 291 296 299 303 299 294 294 295 298 300 295 297 311 325 325 318 315 305 310 317 315 316 316 316 322 326 326 329 331 333 336 341 347 346 342 340 339 338 338 338 339 340 342 345 349 351
209 208 215 219 215 216 210 203 213 221 216 222 231 234 238 234 237 242 231 232 243 246 241 235 235 237 236 238 241 243 247 254 255 256 266 272 273 276 279 283 288 295 301 299 299 302 303 303 302 303 308 317 325 321 318 314 307 314 321 318 317 314 314 323 329 331 337 339 341 343 344 344 340 336 335 334 334 333 333 334 334 336 338 341 344
212 207 207 212 216 218 215 207 211 221 220 220 230 235 233 230 236 248 258 258 253 253 255 246 242 243 237 235 238 241 245 248 249 252 260 269 270 268 273 277 282 288 291 294 297 300 305 308 306 307 311 313 314 313 313 312 309 314 320 320 316 315 322 330 329 334 340 339 340 341 339 337 335 333 333 331 331 329 328 329 330 332 333 334 337
215 213 208 206 210 213 211 207 207 216 218 214 222 232 227 221 222 225 248 264 265 258 256 246 243 248 245 240 240 242 246 249 252 256 261 267 268 267 269 272 278 284 287 289 293 297 301 305 305 307 309 307 309 311 311 313 313 313 316 317 317 320 328 328 323 327 331 333 334 334 333 332 331 330 329 328 327 327 326 326 327 329 329 328 330
211 213 212 208 208 208 206 205 203 208 216 213 213 224 225 220 219 216 235 255 258 252 252 248 247 252 252 248 244 244 248 250 252 257 262 268 271 271 271 273 277 281 282 285 290 295 299 303 302 302 305 307 309 310 311 313 310 307 308 312 317 322 322 320 318 317 319 326 329 328 328 327 326 325 324 323 323 322 322 323 324 326 326 324 325
212 211 214 211 209 207 203 207 205 206 220 221 210 214 221 224 224 224 239 253 251 246 252 255 253 255 258 256 252 253 258 260 261 261 263 265 267 268 268 270 276 276 279 286 290 294 298 302 302 301 304 307 308 310 311 311 309 308 311 314 318 318 313 315 319 313 309 314 322 324 324 324 323 323 322 322 322 322 322 323 324 324 324 322 321
217 214 213 212 213 210 205 213 214 210 219 217 204 209 219 226 225 221 228 240 246 247 250 257 259 258 261 263 260 259 259 261 262 262 263 266 266 266 266 267 272 274 279 286 290 294 298 299 301 303 305 305 305 309 309 309 309 311 312 312 312 313 311 312 317 311 304 308 315 318 318 321 323 323 324 324 324 323 322 322 324 324 323 322 320
219 218 213 210 217 217 210 217 221 215 216 213 206 211 220 225 227 225 226 232 242 246 244 248 251 251 257 261 261 258 255 257 262 265 267 270 271 274 276 276 277 279 280 280 285 292 296 297 300 303 305 306 306 308 308 307 308 309 309 310 309 308 306 307 312 310 305 311 319 319 318 319 320 320 323 324 323 323 323 322 323 323 322 321 321
218 217 214 210 217 221 215 218 223 220 219 217 212 211 214 222 226 226 230 236 241 245 247 250 252 253 257 258 257 257 259 264 268 268 268 269 272 277 279 279 280 281 281 282 285 290 293 295 299 302 305 307 306 306 307 305 304 306 307 308 309 308 306 306 307 307 309 315 321 321 321 322 321 320 319 320 321 322 322 322 321 320 319 319 318
216 216 215 212 215 220 217 214 219 222 222 223 222 217 213 219 224 223 226 234 238 243 248 252 258 261 262 261 259 258 259 262 263 264 268 272 274 274 274 277 280 282 284 288 289 292 294 296 299 302 305 305 303 304 307 306 305 305 305 306 308 308 307 306 305 306 310 311 311 314 318 319 319 318 319 320 322 324 325 324 322 319 317 315 314
217 215 215 214 214 219 221 217 218 223 225 224 227 226 220 219 225 226 226 229 234 240 245 248 251 257 260 262 263 263 262 264 262 262 269 275 274 273 276 280 282 282 283 286 286 289 292 293 296 298 299 299 299 301 303 304 307 308 308 307 307 308 310 311 310 309 309 308 309 313 315 313 315 319 321 322 324 326 327 327 323 318 314 311 310
219 219 218 218 217 219 223 223 221 225 228 228 230 233 230 228 230 233 233 232 233 235 240 243 246 249 252 255 258 260 261 261 260 258 261 265 267 269 273 275 278 281 282 281 281 283 286 289 291 292 295 298 300 302 303 302 304 305 305 305 307 309 311 312 311 311 311 311 312 313 312 314 317 319 319 321 324 327 329 331 330 323 314 311 308
219 220 220 221 222 221 222 226 227 228 230 231 231 232 233 231 231 237 241 240 239 239 240 241 244 247 250 252 253 252 250 253 257 258 257 258 261 265 268 271 275 278 279 280 281 282 285 286 288 290 293 295 297 300 301 300 299 301 303 303 304 307 308 307 307 308 310 310 310 309 311 315 317 316 317 321 324 325 326 328 328 319 312 310 308
221 221 220 221 224 225 225 228 232 234 234 233 235 238 237 232 228 229 236 240 239 240 242 242 243 246 248 250 251 252 252 253 256 259 259 260 262 265 267 270 273 274 275 276 277 279 281 283 285 288 289 290 293 296 297 298 300 301 302 300 300 303 304 305 306 308 310 310 309 311 314 318 319 319 321 323 323 324 323 317 311 310 309 306 304
229 228 226 225 225 227 230 233 236 238 237 236 243 249 248 240 235 231 232 239 243 244 246 248 248 248 249 250 252 257 262 261 258 257 259 260 263 267 269 271 272 273 273 274 274 275 276 278 281 284 285 287 290 293 295 298 300 299 299 299 300 302 302 302 303 305 309 309 309 311 315 318 319 319 321 322 324 327 321 309 311 317 313 305 300
231 232 232 231 230 228 229 232 234 237 236 236 244 253 252 247 245 241 238 240 245 247 249 251 251 250 251 251 252 255 260 261 261 264 267 266 266 267 269 271 271 272 274 275 277 278 278 279 279 280 283 286 289 292 295 297 298 299 300 301 302 301 299 298 297 300 305 307 308 310 312 315 317 317 317 317 318 318 312 310 319 327 322 311 302
230 233 234 234 234 230 226 227 230 232 234 239 244 250 250 246 246 246 244 242 243 246 247 249 252 253 254 256 256 255 255 257 262 268 269 269 269 268 267 269 271 273 275 275 276 277 278 279 280 281 284 286 288 291 294 296 297 299 299 300 300 298 297 296 295 298 302 304 305 306 307 311 316 314 310 310 310 310 311 313 319 325 325 318 308
226 230 232 233 235 233 230 230 233 233 232 239 245 247 245 242 241 241 243 243 243 246 248 248 251 255 257 259 260 259 258 260 264 266 265 265 267 268 269 270 272 274 275 274 273 273 273 274 275 279 283 285 287 290 294 296 297 296 296 295 295 294 293 293 293 295 299 302 304 304 305 310 314 311 307 308 309 308 307 305 309 317 323 322 314
223 225 226 228 231 234 233 233 237 239 236 239 246 246 240 238 237 236 237 239 242 246 250 251 253 256 258 260 263 262 261 261 262 263 263 264 265 267 268 269 271 273 275 275 274 271 271 274 277 280 283 284 287 291 295 296 294 291 291 291 291 290 291 291 293 295 298 301 302 300 300 306 311 309 306 307 307 304 302 299 304 311 316 318 318
225 222 221 223 225 229 233 235 239 242 239 239 245 245 239 236 236 235 235 237 241 244 249 253 255 257 258 260 262 263 262 261 261 262 263 265 267 267 268 269 271 273 273 275 275 273 271 272 274 277 281 282 285 289 291 290 288 286 285 285 286 287 289 291 292 292 294 294 291 286 288 297 303 303 302 305 305 302 302 304 306 307 310 314 314
229 226 224 225 226 228 233 237 239 238 236 238 244 246 243 240 237 236 236 238 241 245 248 252 256 258 260 260 262 264 263 261 260 262 263 265 266 267 268 270 272 272 273 274 278 281 281 278 275 276 280 282 286 289 289 288 287 285 283 282 284 286 288 289 288 289 290 288 286 283 282 287 294 297 299 301 301 301 303 306 304 302 305 309 309
226 226 225 226 229 233 234 236 237 235 236 242 247 248 247 245 242 241 242 242 243 245 248 252 256 260 262 262 262 264 265 263 262 261 261 262 264 266 268 270 271 273 275 276 277 280 283 282 281 282 285 288 292 293 292 290 287 284 281 282 285 285 284 283 285 288 289 288 287 282 277 282 289 294 296 298 298 298 298 297 294 295 300 304 307
218 218 217 218 228 237 239 241 240 231 230 240 245 247 248 247 247 246 247 249 250 250 253 256 258 261 265 266 265 264 263 262 263 264 262 262 263 264 266 269 271 272 273 273 272 273 274 277 281 286 289 291 294 294 293 291 288 283 281 283 284 283 280 281 285 286 285 286 287 282 281 285 289 290 292 296 296 296 296 295 292 293 296 296 298